Weather History for Cumberland, WI

Change the Weather History Date:

Wednesday, February 27, 2013

  Actual Average (KRPD) Record (KRPD)
Temperature  
Mean Temperature 30 °F -  
Max Temperature 32 °F 28 °F 41 °F (1998)
Min Temperature 28 °F 12 °F -24 °F (2014)
Degree Days  
Heating Degree Days 35    
Moisture  
Dew Point 24 °F    
Average Humidity 77    
Maximum Humidity 86    
Minimum Humidity 69    
Precipitation  
Precipitation 0.00 in - - ()
Sea Level Pressure  
Sea Level Pressure 29.87 in    
Wind  
Wind Speed 15 mph (NNE)    
Max Wind Speed 23 mph    
Max Gust Speed 30 mph    
Visibility 10 miles    
Events      
Averages and records for this station are not official NWS values.
T = Trace of Precipitation, MM = Missing Value Source: NWS Daily Summary

Daily Weather History Graph

Daily Weather History Graph

Search for Another Location

Airport:

Trip Planner

Search our weather history database for the weather conditions in past years. The results will help you decide how hot, cold, wet, or windy it might be!

Date:

Astronomy

Feb. 27, 2013 Rise Set
Actual Time 6:49 AM CST 5:52 PM CST
Civil Twilight 6:19 AM CST 6:22 PM CST
Nautical Twilight 5:45 AM CST 6:56 PM CST
Astronomical Twilight 5:11 AM CST 7:31 PM CST
Moon 8:24 PM CST (2/27) 7:16 AM CST (2/27)
Length of Visible Light 12h 02m
Length of Day
11h 03m
Waning Gibbous, 96% of the Moon is Illuminated
Feb 27
Waning Gibbous
Mar 4
Last Quarter
Mar 11
New
Mar 19
First Quarter
Mar 27
Full

Hourly Weather History & Observations

Time (CST) Temp. Windchill Dew Point Humidity Pressure Visibility Wind Dir Wind Speed Gust Speed Precip Events Conditions
12:15 AM 30.2 °F 18.1 °F 23.0 °F 75% 29.84 in 10.0 mi NE 18.4 mph 25.3 mph N/A   Overcast
12:35 AM 28.4 °F 19.7 °F 23.0 °F 80% 29.85 in 10.0 mi NNE 9.2 mph 25.3 mph N/A   Overcast
12:55 AM 28.4 °F 17.5 °F 23.0 °F 80% 29.85 in 10.0 mi NE 13.8 mph - N/A   Overcast
1:15 AM 28.4 °F 17.5 °F 23.0 °F 80% 29.84 in 10.0 mi NE 13.8 mph 23.0 mph N/A   Overcast
1:35 AM 28.4 °F 15.8 °F 23.0 °F 80% 29.85 in 10.0 mi NE 18.4 mph 25.3 mph N/A   Overcast
1:55 AM 28.4 °F 17.0 °F 23.0 °F 80% 29.85 in 10.0 mi NE 15.0 mph 23.0 mph N/A   Overcast
2:15 AM 28.4 °F 16.2 °F 23.0 °F 80% 29.84 in 10.0 mi NE 17.3 mph 23.0 mph N/A   Overcast
2:35 AM 28.4 °F 19.1 °F 23.0 °F 80% 29.84 in 10.0 mi NNE 10.4 mph 17.3 mph N/A   Overcast
2:55 AM 28.4 °F 19.1 °F 23.0 °F 80% 29.84 in 10.0 mi NNE 10.4 mph 23.0 mph N/A   Overcast
3:15 AM 28.4 °F 18.5 °F 23.0 °F 80% 29.83 in 10.0 mi NNE 11.5 mph 18.4 mph N/A   Overcast
3:35 AM 28.4 °F 18.0 °F 23.0 °F 80% 29.83 in 10.0 mi NNE 12.7 mph 17.3 mph N/A   Overcast
3:55 AM 28.4 °F 18.0 °F 23.0 °F 80% 29.83 in 10.0 mi NNE 12.7 mph - N/A   Overcast
4:15 AM 28.4 °F 17.0 °F 23.0 °F 80% 29.82 in 10.0 mi NNE 15.0 mph 19.6 mph N/A   Overcast
4:35 AM 28.4 °F 16.6 °F 23.0 °F 80% 29.82 in 10.0 mi NNE 16.1 mph 21.9 mph N/A   Overcast
4:55 AM 30.2 °F 19.8 °F 23.0 °F 75% 29.82 in 10.0 mi NNE 13.8 mph 21.9 mph N/A   Overcast
5:15 AM 30.2 °F 17.8 °F 23.0 °F 75% 29.82 in 10.0 mi NNE 19.6 mph 23.0 mph N/A   Overcast
5:35 AM 30.2 °F 18.9 °F 23.0 °F 75% 29.83 in 10.0 mi NNE 16.1 mph 20.7 mph N/A   Overcast
5:55 AM 30.2 °F 19.8 °F 24.8 °F 80% 29.83 in 10.0 mi NNE 13.8 mph 20.7 mph N/A   Overcast
6:15 AM 30.2 °F 19.8 °F 24.8 °F 80% 29.83 in 10.0 mi NNE 13.8 mph 18.4 mph N/A   Overcast
6:35 AM 30.2 °F 19.3 °F 24.8 °F 80% 29.83 in 10.0 mi NNE 15.0 mph - N/A   Overcast
6:55 AM 30.2 °F 20.2 °F 24.8 °F 80% 29.83 in 10.0 mi NNE 12.7 mph 19.6 mph N/A   Overcast
7:15 AM 30.2 °F 19.8 °F 23.0 °F 75% 29.84 in 10.0 mi NNE 13.8 mph 21.9 mph N/A   Overcast
7:35 AM 30.2 °F 18.9 °F 23.0 °F 75% 29.83 in 10.0 mi NNE 16.1 mph 23.0 mph N/A   Overcast
7:55 AM 30.2 °F 18.9 °F 23.0 °F 75% 29.83 in 10.0 mi NNE 16.1 mph 20.7 mph N/A   Overcast
8:15 AM 30.2 °F 17.8 °F 23.0 °F 75% 29.83 in 10.0 mi NNE 19.6 mph - N/A   Overcast
8:35 AM 32.0 °F 20.5 °F 23.0 °F 69% 29.83 in 10.0 mi NNE 18.4 mph 26.5 mph N/A   Overcast
9:15 AM 32.0 °F 20.1 °F 24.8 °F 75% 29.82 in 10.0 mi NNE 19.6 mph 23.0 mph N/A   Overcast
9:35 AM 32.0 °F 21.2 °F 24.8 °F 75% 29.82 in 10.0 mi North 16.1 mph 25.3 mph N/A   Overcast
9:55 AM 32.0 °F 21.6 °F 24.8 °F 75% 29.82 in 10.0 mi NNE 15.0 mph 27.6 mph N/A   Overcast
10:15 AM 32.0 °F 20.1 °F 24.8 °F 75% 29.82 in 10.0 mi NNE 19.6 mph 25.3 mph N/A   Overcast
10:35 AM 32.0 °F 19.5 °F 23.0 °F 69% 29.82 in 10.0 mi North 21.9 mph 29.9 mph N/A   Scattered Clouds
10:55 AM 32.0 °F 19.2 °F 23.0 °F 69% 29.82 in 10.0 mi NNE 23.0 mph 28.8 mph N/A   Mostly Cloudy
11:15 AM 32.0 °F 20.1 °F 24.8 °F 75% 29.83 in 10.0 mi NNE 19.6 mph 25.3 mph N/A   Overcast
11:35 AM 32.0 °F 20.8 °F 24.8 °F 75% 29.83 in 10.0 mi North 17.3 mph 20.7 mph N/A   Overcast
11:55 AM 32.0 °F 20.1 °F 23.0 °F 69% 29.84 in 10.0 mi NNE 19.6 mph 25.3 mph N/A   Overcast
12:15 PM 32.0 °F 19.8 °F 24.8 °F 75% 29.84 in 10.0 mi NNE 20.7 mph 25.3 mph N/A   Overcast
12:35 PM 32.0 °F 21.2 °F 24.8 °F 75% 29.84 in 10.0 mi NE 16.1 mph 21.9 mph N/A   Overcast
12:55 PM 32.0 °F 20.1 °F 24.8 °F 75% 29.83 in 10.0 mi North 19.6 mph 24.2 mph N/A   Overcast
1:15 PM 32.0 °F 21.2 °F 24.8 °F 75% 29.84 in 10.0 mi NNE 16.1 mph 27.6 mph N/A   Overcast
1:35 PM 32.0 °F 19.8 °F 26.6 °F 80% 29.84 in 10.0 mi NNE 20.7 mph 27.6 mph N/A   Overcast
1:55 PM 32.0 °F 23.0 °F 26.6 °F 80% 29.84 in 10.0 mi North 11.5 mph 25.3 mph N/A   Overcast
2:15 PM 32.0 °F 20.1 °F 26.6 °F 80% 29.84 in 10.0 mi NNE 19.6 mph 27.6 mph N/A   Overcast
2:35 PM 32.0 °F 20.8 °F 26.6 °F 80% 29.85 in 10.0 mi North 17.3 mph 23.0 mph N/A   Overcast
2:55 PM 32.0 °F 20.8 °F 26.6 °F 80% 29.86 in 10.0 mi North 17.3 mph 23.0 mph N/A   Overcast
3:15 PM 32.0 °F 21.6 °F 26.6 °F 80% 29.86 in 10.0 mi North 15.0 mph 23.0 mph N/A   Overcast
3:35 PM 32.0 °F 21.6 °F 26.6 °F 80% 29.86 in 10.0 mi North 15.0 mph 23.0 mph N/A   Overcast
3:55 PM 30.2 °F 18.9 °F 26.6 °F 86% 29.87 in 10.0 mi North 16.1 mph 25.3 mph N/A   Overcast
4:15 PM 30.2 °F 17.1 °F 24.8 °F 80% 29.87 in 10.0 mi North 21.9 mph 27.6 mph N/A   Overcast
4:35 PM 30.2 °F 19.3 °F 24.8 °F 80% 29.88 in 10.0 mi North 15.0 mph 25.3 mph N/A   Overcast
4:55 PM 30.2 °F 18.9 °F 24.8 °F 80% 29.89 in 10.0 mi North 16.1 mph 25.3 mph N/A   Overcast
5:15 PM 30.2 °F 18.9 °F 24.8 °F 80% 29.89 in 10.0 mi North 16.1 mph 21.9 mph N/A   Overcast
5:35 PM 30.2 °F 18.5 °F 24.8 °F 80% 29.89 in 10.0 mi North 17.3 mph 25.3 mph N/A   Overcast
5:55 PM 30.2 °F 19.3 °F 24.8 °F 80% 29.90 in 10.0 mi North 15.0 mph 24.2 mph N/A   Overcast
6:15 PM 30.2 °F 19.3 °F 24.8 °F 80% 29.91 in 10.0 mi North 15.0 mph 26.5 mph N/A   Overcast
6:35 PM 30.2 °F 20.8 °F 24.8 °F 80% 29.92 in 10.0 mi North 11.5 mph 23.0 mph N/A   Overcast
6:55 PM 30.2 °F 18.9 °F 24.8 °F 80% 29.92 in 10.0 mi North 16.1 mph 19.6 mph N/A   Overcast
7:15 PM 30.2 °F 19.3 °F 23.0 °F 75% 29.92 in 10.0 mi NNE 15.0 mph 20.7 mph N/A   Overcast
7:35 PM 30.2 °F 19.8 °F 23.0 °F 75% 29.93 in 10.0 mi NNE 13.8 mph 23.0 mph N/A   Overcast
7:55 PM 30.2 °F 20.2 °F 23.0 °F 75% 29.93 in 10.0 mi North 12.7 mph 17.3 mph N/A   Overcast
8:15 PM 30.2 °F 20.8 °F 23.0 °F 75% 29.94 in 10.0 mi North 11.5 mph 16.1 mph N/A   Overcast
8:35 PM 30.2 °F 18.9 °F 23.0 °F 75% 29.94 in 10.0 mi NNE 16.1 mph 21.9 mph N/A   Overcast
8:55 PM 30.2 °F 19.3 °F 23.0 °F 75% 29.94 in 10.0 mi NNE 15.0 mph 18.4 mph N/A   Overcast
9:15 PM 30.2 °F 20.8 °F 23.0 °F 75% 29.95 in 10.0 mi NNE 11.5 mph 21.9 mph N/A   Overcast
9:35 PM 30.2 °F 19.8 °F 23.0 °F 75% 29.95 in 10.0 mi NNE 13.8 mph 19.6 mph N/A   Overcast
9:55 PM 30.2 °F 19.8 °F 23.0 °F 75% 29.95 in 10.0 mi North 13.8 mph 20.7 mph N/A   Overcast
10:15 PM 30.2 °F 20.8 °F 21.2 °F 69% 29.95 in 10.0 mi NNE 11.5 mph - N/A   Overcast
10:35 PM 30.2 °F 21.3 °F 21.2 °F 69% 29.96 in 10.0 mi NNE 10.4 mph 17.3 mph N/A   Overcast
10:55 PM 30.2 °F 20.8 °F 21.2 °F 69% 29.96 in 10.0 mi North 11.5 mph - N/A   Overcast
11:15 PM 30.2 °F 21.9 °F 21.2 °F 69% 29.96 in 10.0 mi North 9.2 mph - N/A   Overcast
11:55 PM 30.2 °F 21.3 °F 23.0 °F 75% 29.96 in 10.0 mi North 10.4 mph 16.1 mph N/A   Overcast